Location: Tabor
(49.4170°N, 14.6670°E)
Time: 19:30:11
(UTC+01:00)

ISS - Visible Passes

Search period start: 21 March 2019 00:00
Search period end: 31 March 2019 00:00
Orbit: 406 x 411 km, 51.6° (Epoch: 21 March)

Date Brightness Start Highest point End Pass type
(mag) Time Alt. Az. Time Alt. Az. Time Alt. Az.
21 Mar -1.2 20:28:27 10° SW 20:28:52 13° SW 20:28:52 13° SW visible
22 Mar -2.7 19:37:49 10° SSW 19:40:36 25° SE 19:40:42 25° SE visible
23 Mar -3.2 20:22:32 10° WSW 20:25:05 48° SW 20:25:05 48° SW visible
24 Mar -3.5 19:31:35 10° SW 19:34:47 48° SSE 19:36:30 23° E visible
24 Mar -1.3 21:08:02 10° W 21:09:16 21° W 21:09:16 21° W visible
25 Mar -3.8 20:16:51 10° W 20:20:10 75° NNW 20:20:31 65° NE visible
26 Mar -3.9 19:25:43 10° WSW 19:29:01 84° SSE 19:31:39 15° ENE visible
26 Mar -1.9 21:02:28 10° W 21:04:24 30° WNW 21:04:24 30° WNW visible
27 Mar -3.4 20:11:16 10° W 20:14:31 58° N 20:15:26 40° NE visible
27 Mar -0.4 21:48:00 10° WNW 21:48:10 11° WNW 21:48:10 11° WNW visible
28 Mar -3.5 19:20:01 10° W 19:23:19 68° NNW 19:26:23 11° ENE visible
28 Mar -2.4 20:56:49 10° WNW 20:59:07 39° NW 20:59:07 39° NW visible
29 Mar -3.4 20:05:36 10° WNW 20:08:52 56° N 20:10:01 34° ENE visible
29 Mar -0.7 21:42:14 10° WNW 21:42:45 14° WNW 21:42:45 14° WNW visible
30 Mar -3.3 19:14:21 10° W 19:17:37 56° N 19:20:53 10° ENE visible
30 Mar -3.0 20:51:03 10° WNW 20:53:37 51° WNW 20:53:37 51° WNW visible
